Main page
METAR-TAF:

METAR-TAF

Airports :

Aghajari, Iran

latitude: 30-46N, longitude: 049-40E, elevation: 29 m

Current weather observation

The report was made 19 minutes ago, at 17:00 UTC
Wind 8 kt from the Northwest
Temperature 36°C
Humidity 14%
Pressure 1000 hPa
Visibility 10 km or more
no clouds below 1500 m and no cumulonimbus

METAR: OIAG 231700Z 32008KT CAVOK 36/04 Q1000

Time: 21:49 (17:19 UTC)


TAF: missing

Weather observations and forecasts of more than 4000 airports (METAR and TAF reports).

The available stations are represented by yellow and red dots on the map.

Hover mouse over dot to see the name of the station.

Then click to see weather observations and forecasts.

To change the map : click on the green buttons with a black cross to zoom in, on the green button with a dash to zoom out, or on the green arrows for adjacent maps.


METAR-TAF: